Wind_Speed
60 60 60 59 58 58 59 58 57 57 58 58 56 55 54 53 53 52 52 53 54 55 56 57 57 57 57 55 54 52 50 49 48 47 48 48 49 49 49 48 47 44 42 39 37 35 35 35 35 35 36 37 37 37 36 36 37 38 39 40 39 40 42 44 46 48 49 49 50 50 50 50 49 49 49 48 48 48 49 49 49 50 52 53 55 56
60 60 59 58 57 57 58 58 56 55 56 56 56 55 54 53 52 52 53 54 56 57 58 58 59 59 59 58 57 55 53 52 52 51 51 51 51 51 50 49 47 44 41 38 36 35 34 33 33 34 34 35 35 35 35 36 37 37 38 38 38 39 40 42 44 46 47 48 49 49 49 48 48 47 47 47 46 46 46 47 48 49 51 53 54 55
59 60 59 57 56 56 57 57 56 55 54 54 54 54 53 53 53 53 54 56 57 58 59 60 61 61 61 60 58 56 54 53 53 53 52 52 52 51 49 47 44 42 40 37 36 34 33 32 32 32 32 32 32 33 34 35 36 37 38 38 39 40 41 42 44 45 46 47 48 48 48 47 46 46 45 44 44 43 43 43 45 47 49 51 52 53
58 57 57 56 55 55 55 54 54 54 53 53 53 53 53 53 54 55 56 57 59 60 61 62 62 62 61 59 56 54 53 52 51 51 51 50 49 48 46 44 41 39 38 36 35 34 33 32 31 31 31 32 33 34 35 36 37 38 38 39 40 40 41 43 44 45 46 47 47 47 46 46 45 44 43 42 41 40 40 41 43 45 46 48 49 50
55 54 54 54 53 53 53 53 52 52 51 51 50 51 52 54 55 57 58 59 61 62 63 63 62 61 58 55 53 51 49 49 48 48 48 47 46 45 43 40 39 37 36 36 35 35 34 33 32 32 33 34 36 37 37 37 38 39 39 40 40 41 42 43 44 45 46 46 46 45 45 43 42 41 41 40 39 39 40 41 43 45 46 46 46 46
53 51 50 50 50 51 51 51 51 50 49 48 48 48 50 53 56 58 60 62 64 65 65 63 61 58 54 52 50 48 47 46 45 45 45 44 43 41 39 37 36 35 35 36 36 36 35 34 34 33 34 35 36 37 37 37 38 38 39 40 40 41 42 43 45 45 46 45 45 43 42 41 40 39 39 39 39 40 41 43 44 45 46 45 44 43
50 49 47 48 49 50 50 50 49 48 46 46 46 48 51 55 58 60 63 65 66 66 64 62 58 55 52 50 48 47 45 44 43 43 42 41 40 38 36 35 34 34 35 36 36 36 35 34 33 33 34 35 36 36 36 36 37 37 38 39 40 41 42 43 44 45 44 44 43 41 39 39 38 38 38 38 40 41 43 44 45 45 45 44 42 41
48 48 48 48 49 50 50 48 47 46 45 46 48 52 55 59 61 63 64 65 65 64 63 60 56 53 51 49 47 46 45 43 42 41 40 38 37 36 35 34 34 34 34 35 34 34 33 32 32 33 34 35 35 35 35 35 36 36 37 38 39 40 41 42 43 43 42 42 40 39 37 37 37 37 38 39 40 41 43 45 45 45 44 43 41 40
47 48 49 49 49 49 49 48 47 46 47 49 52 56 60 62 64 64 64 64 63 61 60 58 56 53 50 48 46 45 44 42 41 40 38 37 36 34 34 33 33 33 33 33 33 32 32 33 33 34 35 35 35 34 34 34 34 35 35 36 37 38 39 40 40 40 40 39 38 37 37 37 37 38 39 39 40 41 43 44 44 44 43 42 41 40
47 48 49 49 47 47 47 49 49 50 51 54 56 59 62 64 65 65 64 62 60 58 57 56 54 52 50 47 45 44 42 41 40 38 37 36 35 34 34 34 34 33 33 33 33 33 33 34 34 34 34 34 33 33 32 32 33 33 34 34 35 36 37 37 37 37 37 37 36 36 36 37 37 38 39 40 41 42 43 43 43 43 43 42 42 41
48 47 47 46 47 48 49 51 52 54 55 57 59 61 62 63 64 65 65 63 59 56 54 53 52 50 48 46 44 42 41 41 39 38 37 36 36 35 35 35 34 34 33 33 33 32 32 32 32 32 32 32 31 31 31 31 31 31 32 32 33 34 34 35 35 35 35 35 35 35 35 36 37 38 40 41 42 42 43 43 44 44 43 43 42 42
46 46 47 48 50 51 52 54 55 56 57 59 61 62 62 62 62 63 64 62 59 56 53 51 48 47 45 44 43 42 41 40 40 39 38 37 37 38 38 37 36 35 34 34 33 32 31 31 31 31 31 30 30 30 30 30 30 30 30 31 31 31 32 32 33 33 33 33 33 33 34 35 36 38 40 40 41 42 43 44 45 44 44 43 43 42
46 47 49 50 52 53 55 56 57 58 59 60 62 63 63 61 60 59 59 58 56 53 51 49 47 45 43 43 43 43 42 42 41 40 40 40 41 41 41 40 38 37 36 35 33 32 31 31 31 30 30 30 30 29 29 29 29 29 29 29 29 30 31 31 31 31 31 31 31 32 33 34 36 38 39 40 41 42 43 45 45 45 45 44 43 42
48 49 51 52 53 55 56 57 59 60 60 60 61 62 61 59 58 56 55 54 51 49 48 47 46 45 44 44 44 44 45 44 44 43 43 43 43 43 44 43 40 38 37 37 35 34 32 32 32 31 30 30 29 29 29 29 28 28 28 28 28 29 30 30 30 30 30 30 31 32 33 34 36 37 39 40 41 43 44 45 46 46 45 44 43 42
49 51 52 54 55 56 57 58 59 60 60 60 59 59 57 56 54 52 51 50 48 47 47 47 47 46 46 46 45 45 46 46 46 46 46 45 45 44 45 44 42 39 38 38 37 35 34 33 33 32 31 30 30 29 29 28 28 28 27 27 27 28 28 29 29 29 30 31 31 32 33 34 36 38 39 41 42 44 45 46 46 46 46 45 44 43
50 51 53 55 56 57 57 58 59 59 59 58 56 55 54 53 50 48 48 47 47 47 47 47 48 48 48 46 45 44 45 46 47 47 47 47 45 44 44 43 42 40 39 38 38 36 35 34 33 33 32 31 30 29 29 29 28 27 25 24 25 26 28 29 30 31 32 32 33 34 35 36 37 39 40 42 43 44 45 46 47 47 46 45 44 43
51 52 54 56 57 57 57 57 57 57 56 55 53 51 50 48 47 46 46 46 46 47 47 47 48 49 49 47 45 44 44 46 47 47 47 47 45 44 43 43 42 41 39 38 38 37 36 35 34 33 32 31 30 29 29 28 27 26 25 26 27 29 30 31 31 32 33 34 35 36 37 38 39 40 41 42 43 44 45 46 47 47 47 46 45 44
52 54 55 56 57 57 57 56 55 54 52 51 49 47 46 45 45 45 45 46 46 46 46 47 47 48 49 48 46 44 44 45 46 47 46 46 45 44 43 42 42 41 39 38 37 36 35 34 33 32 31 30 30 29 29 28 28 27 28 29 31 31 32 32 33 33 34 35 37 38 39 40 41 41 42 43 44 45 46 47 47 47 47 46 45 44
53 54 55 56 57 57 55 54 52 50 48 47 46 45 45 44 44 44 45 45 45 45 46 46 46 47 47 47 46 44 43 44 45 46 46 46 45 43 42 41 41 40 39 37 36 34 33 33 32 31 30 29 28 28 27 27 28 29 30 31 32 33 33 33 34 34 35 36 37 39 40 41 41 42 42 42 43 44 46 47 47 47 47 46 45 44
54 54 54 55 55 54 52 50 47 45 44 43 43 44 44 44 44 44 44 44 44 44 44 45 45 46 46 46 45 43 42 43 44 45 45 45 44 42 41 40 39 39 37 36 34 32 32 31 30 29 28 27 26 26 26 26 27 28 29 31 32 33 33 34 34 35 36 36 37 38 39 40 41 41 41 40 41 43 45 46 47 47 46 46 45 44
54 53 52 51 51 51 49 45 43 41 41 42 42 43 43 44 43 43 43 43 43 43 44 44 45 44 44 44 44 42 41 42 43 44 45 44 43 41 39 38 37 37 36 34 32 31 30 29 29 27 26 25 25 24 24 25 25 26 28 29 30 31 32 33 34 34 35 35 36 37 38 39 40 40 39 40 42 44 45 46 46 46 46 46 46 46
52 51 49 47 46 45 44 42 41 40 40 40 41 42 42 43 43 43 42 42 43 43 43 44 44 43 43 43 42 41 40 40 41 43 43 43 42 39 36 35 35 35 34 33 31 30 29 28 27 26 25 24 23 23 23 24 25 25 26 27 28 29 30 31 31 32 32 33 34 36 37 38 39 40 41 42 44 45 46 46 46 46 46 47 47 46
49 48 46 43 41 40 40 40 39 39 39 39 39 40 41 41 42 42 42 42 42 42 43 43 42 42 42 42 41 40 39 38 39 40 41 41 40 37 34 34 34 34 33 32 31 30 29 28 27 25 24 23 22 22 22 23 23 24 25 26 26 27 27 28 28 29 30 31 33 35 36 38 39 40 42 44 46 47 48 48 48 47 47 47 47 47
44 43 41 39 38 38 38 38 38 38 38 38 38 38 39 39 40 40 41 41 41 41 42 42 42 41 41 40 39 38 36 36 36 37 38 39 38 36 34 33 34 34 33 32 31 31 30 29 27 25 24 22 21 21 20 21 21 22 23 24 25 25 26 26 27 28 29 30 32 34 35 37 39 40 42 44 46 48 49 49 49 48 48 48 47 47
39 38 37 37 36 36 37 37 37 36 36 37 37 37 38 38 39 39 39 39 39 40 40 40 40 40 39 39 38 36 34 33 33 35 36 38 38 36 34 33 34 35 34 33 32 31 31 30 27 25 23 22 20 19 19 19 19 20 21 22 23 24 25 25 26 27 29 30 32 34 35 36 38 40 42 44 46 47 48 48 48 47 47 47 47 46
35 35 35 35 35 35 35 34 34 34 34 35 35 36 37 37 38 38 37 37 37 37 37 38 39 39 38 38 37 35 33 32 32 33 34 36 37 36 34 33 34 35 36 34 33 33 33 31 28 25 23 21 20 18 18 18 18 18 19 20 21 22 23 25 26 27 29 30 32 34 35 36 37 39 41 43 45 46 46 45 44 44 45 46 46 46
33 34 34 33 33 33 32 32 32 32 32 32 33 33 34 35 35 36 35 35 34 35 36 37 38 38 38 37 37 35 33 32 32 32 33 35 37 37 35 34 35 36 37 37 36 35 34 32 29 26 24 21 19 18 17 17 17 17 18 19 20 21 22 24 25 27 28 30 32 33 34 35 37 39 41 42 43 44 43 42 41 41 42 44 45 45
33 33 32 32 31 31 31 30 30 30 30 30 30 30 31 32 32 33 33 33 34 34 35 36 38 39 39 38 37 35 34 32 32 32 33 34 36 37 36 36 36 37 38 38 37 35 33 31 29 27 25 23 21 19 18 17 17 17 17 18 19 20 22 23 25 26 28 30 31 32 34 35 37 38 40 41 41 41 40 39 38 39 40 41 42 43
32 31 30 30 29 29 29 29 28 28 27 27 27 27 28 29 30 31 32 33 33 34 35 36 37 38 39 39 38 36 34 32 31 31 33 35 36 37 37 36 36 37 38 39 39 36 33 31 29 29 28 26 24 23 21 20 19 19 19 19 20 21 23 24 26 27 29 30 31 32 34 35 36 37 38 38 38 38 36 36 35 35 36 37 38 39
31 30 29 28 27 27 27 27 26 26 26 25 26 26 27 28 29 30 31 32 33 34 35 36 37 37 38 39 39 37 35 32 31 31 32 34 36 37 37 37 36 36 37 39 40 39 35 31 29 29 30 29 27 25 24 22 21 20 20 20 21 22 23 24 26 28 29 30 31 32 33 34 35 35 35 35 34 33 32 31 30 31 32 33 34 36
30 29 28 27 26 26 26 25 25 25 25 25 25 26 27 28 29 30 31 32 33 34 35 36 36 37 37 38 39 38 37 33 31 30 32 34 35 37 37 37 37 36 36 37 38 39 39 34 30 28 29 29 28 26 23 22 21 20 20 20 20 21 22 23 25 27 28 29 30 30 31 31 31 31 31 30 29 28 27 26 26 26 27 28 30 32
30 28 27 27 26 25 25 25 25 25 25 25 26 27 27 28 29 30 31 32 32 33 34 35 36 36 36 36 37 38 37 34 31 30 31 33 35 36 37 37 38 37 36 35 36 37 39 38 33 29 28 28 27 24 22 20 20 19 19 19 20 20 21 22 23 25 26 26 26 26 26 26 26 26 25 25 24 23 22 22 21 22 23 24 26 29
29 27 27 26 25 25 25 25 25 25 26 26 27 27 28 29 29 30 30 31 32 32 33 34 35 36 36 36 36 36 35 34 32 31 31 33 35 36 37 37 37 37 36 35 35 35 37 37 35 32 28 26 24 22 20 19 18 18 18 18 19 20 20 21 22 22 23 23 22 22 21 21 21 21 20 20 20 19 18 17 17 18 19 21 23 26
27 26 26 25 25 25 25 25 25 26 26 27 27 28 28 29 29 29 30 30 31 31 32 32 33 34 35 36 36 36 34 33 31 30 31 32 34 35 36 36 37 37 36 36 35 35 35 35 35 33 30 24 21 19 19 17 16 15 16 17 18 19 19 19 19 20 19 19 18 17 17 17 17 16 16 16 15 15 14 14 14 15 16 18 20 23
26 25 25 25 25 25 25 25 26 26 26 27 27 28 28 29 29 29 29 29 29 30 30 30 31 32 33 34 35 35 34 32 30 30 30 31 33 34 35 35 35 35 36 36 35 35 35 34 33 32 30 24 19 16 15 14 13 14 14 15 16 17 17 17 17 16 16 15 14 14 13 13 13 12 12 12 12 11 11 11 11 12 14 16 18 20
26 25 25 25 26 26 26 26 26 26 27 27 27 28 28 28 28 28 29 29 29 29 29 29 29 29 30 31 32 33 33 32 30 30 30 31 32 33 34 34 33 34 34 35 35 34 34 32 30 28 27 23 18 13 11 11 12 13 14 15 15 16 16 15 15 15 14 13 11 11 10 10 9 9 8 9 9 9 8 8 9 11 12 14 16 18
25 25 25 26 27 27 27 27 27 27 27 27 27 27 28 28 28 28 28 28 28 28 28 28 28 28 28 28 29 30 30 30 30 29 29 30 30 31 32 32 32 32 32 33 33 33 32 31 28 25 23 21 18 15 12 12 12 12 13 14 14 15 14 14 14 13 12 11 10 8 8 7 7 7 7 8 8 8 7 7 8 10 12 13 15 16
25 26 26 27 27 28 28 28 27 27 27 27 28 28 28 28 28 28 28 28 28 28 28 28 28 27 27 27 27 27 28 28 28 28 28 28 29 30 31 31 31 30 30 31 31 31 31 29 28 25 22 18 16 16 15 15 14 13 12 13 14 14 13 13 12 11 10 9 8 7 7 8 8 9 9 9 8 7 6 6 7 9 11 12 14 15
26 26 27 27 28 28 28 28 28 28 28 28 28 28 28 28 27 27 27 28 28 28 29 29 28 28 27 26 26 26 26 26 27 27 27 27 27 28 29 30 30 30 29 29 29 29 28 28 27 25 23 20 17 15 15 15 14 13 12 12 12 12 12 11 10 9 9 8 7 7 7 8 8 8 6 6 6 7 6 6 6 7 9 11 13 15
26 27 27 27 28 28 29 29 29 28 28 28 28 27 28 27 27 27 27 27 28 28 29 29 29 28 28 27 26 25 25 25 25 25 25 26 26 26 27 28 29 29 29 28 27 26 26 26 25 23 22 20 18 16 14 13 13 12 11 11 10 10 10 9 9 8 7 6 6 6 6 6 5 3 2 1 2 4 6 7 7 7 8 10 12 14
27 27 27 28 28 28 29 29 29 29 28 28 27 27 27 27 27 27 26 27 27 28 29 29 29 29 28 26 25 24 24 24 24 24 24 24 24 25 26 27 28 28 28 27 25 24 23 23 23 21 19 17 16 14 13 12 12 12 11 10 10 9 8 7 6 5 4 3 3 3 4 4 5 4 3 1 1 2 5 8 9 9 9 9 10 13
27 27 28 28 29 29 29 29 29 28 28 27 27 26 26 26 27 27 26 26 27 27 28 29 29 29 28 26 24 23 22 22 22 22 22 23 23 24 25 26 27 27 27 25 23 21 20 20 19 17 16 14 13 12 12 12 12 12 11 10 9 8 6 6 5 4 4 4 3 2 2 3 4 5 5 4 3 1 2 6 9 11 11 10 9 11
27 28 29 29 30 30 30 30 29 28 27 26 26 25 25 25 25 26 26 26 26 27 27 28 29 29 28 26 24 22 21 20 20 21 21 22 23 23 24 25 25 25 25 23 21 19 17 15 14 13 12 12 12 12 12 12 12 12 12 11 10 10 10 9 9 9 10 10 9 7 5 3 3 4 4 4 4 2 2 5 8 10 11 11 10 10
28 29 29 30 30 30 30 30 29 28 27 26 25 24 24 24 24 24 25 25 25 26 26 27 28 28 27 26 24 22 20 20 20 20 21 21 22 23 24 24 24 23 22 20 19 16 13 12 11 11 11 12 12 13 14 14 14 14 14 14 14 15 16 16 16 16 17 16 14 12 10 7 4 2 2 3 3 3 3 4 5 7 8 9 9 10
29 30 30 31 31 31 30 29 28 27 26 25 25 24 23 23 23 23 24 24 24 24 25 26 27 28 27 25 24 22 21 20 20 20 21 21 22 22 23 23 22 20 19 17 15 13 11 10 10 10 11 12 14 15 16 17 18 18 18 18 19 20 20 21 21 21 21 20 18 17 15 13 11 8 4 1 0 1 2 3 3 3 4 5 7 8
30 30 31 31 31 30 29 28 27 26 25 25 24 24 23 23 23 23 23 23 23 23 24 25 27 27 27 25 24 23 22 21 21 22 22 22 21 21 21 21 20 18 16 13 11 10 10 10 11 11 12 14 15 17 18 20 21 22 23 23 24 24 24 24 23 23 22 21 20 20 18 17 15 13 10 6 4 2 1 1 2 2 2 3 5 8
30 31 31 30 30 29 28 27 26 26 25 25 24 24 23 23 23 23 22 22 22 22 23 24 25 26 27 25 24 23 23 23 23 23 23 22 21 21 20 19 17 15 13 11 10 10 11 11 12 13 14 15 17 19 21 22 24 26 27 27 28 28 28 27 25 24 23 22 21 21 20 18 17 16 14 9 6 4 3 2 0 2 2 2 4 8
30 30 30 30 29 28 27 26 25 25 25 25 24 23 23 23 23 23 23 22 21 21 22 23 24 26 26 25 24 24 24 24 24 24 23 23 21 20 18 17 15 13 11 10 10 11 12 13 13 14 15 16 19 21 23 24 26 27 28 29 29 30 30 28 27 25 25 24 23 22 21 20 20 18 16 12 8 5 5 5 2 1 2 1 3 8
30 29 29 28 28 27 26 26 25 25 25 25 24 24 23 23 23 23 22 21 20 20 21 22 24 25 25 25 24 24 24 24 24 24 23 23 21 20 17 15 13 12 11 11 12 12 13 14 14 15 16 17 20 23 25 26 26 27 28 28 29 29 29 28 27 25 25 24 23 23 22 21 20 18 16 13 9 7 7 7 5 3 1 1 3 7
28 28 27 27 27 26 26 25 25 25 25 25 25 25 24 24 23 23 22 21 19 19 19 21 23 24 25 25 24 23 23 23 23 23 23 22 21 19 17 15 13 12 12 12 13 13 14 14 15 15 16 18 20 22 24 25 26 27 28 28 28 28 28 27 26 25 24 23 22 22 21 20 18 16 14 11 8 7 8 8 7 5 3 2 4 7
26 26 26 25 25 25 25 24 24 24 25 25 25 25 25 25 24 23 22 21 19 18 18 19 21 24 25 25 24 23 23 23 23 23 22 22 20 19 17 15 14 13 13 13 14 14 14 15 15 15 16 18 20 22 23 24 25 27 28 28 28 27 27 26 25 23 22 21 20 19 19 18 16 14 12 10 8 8 8 7 6 5 4 3 4 7
Wind_Direction
307 307 307 307 307 307 306 307 307 308 307 307 307 307 306 306 305 305 306 307 307 308 309 309 310 311 310 309 308 307 306 305 305 304 304 303 303 303 303 303 302 300 296 292 288 284 279 276 274 273 272 271 269 268 266 265 264 263 263 262 261 260 260 261 262 263 264 265 264 264 263 263 263 263 263 262 262 260 258 257 257 257 257 257 257 258
307 307 307 307 308 307 307 307 308 308 308 307 307 306 305 305 304 305 306 307 308 309 310 312 313 313 312 310 309 307 306 305 304 304 303 303 302 302 303 302 301 299 295 292 289 285 281 278 275 273 272 270 270 268 267 266 265 264 263 262 262 262 263 263 264 265 265 265 265 264 263 263 263 263 263 263 263 262 260 257 256 255 255 256 256 257
308 308 308 308 308 308 307 308 308 308 308 308 307 306 306 305 305 305 307 308 309 310 311 312 313 312 311 309 308 306 305 304 303 303 302 302 302 302 302 301 299 297 294 291 288 285 283 280 278 275 274 273 272 272 271 269 268 266 264 263 263 264 265 265 266 266 266 265 265 264 263 263 262 262 263 263 263 263 261 259 257 256 255 255 256 257
309 309 308 309 309 308 308 308 309 308 308 308 307 307 307 306 306 307 308 309 310 310 311 311 311 310 309 308 307 306 305 304 303 303 303 302 302 302 302 301 298 295 292 289 287 285 283 281 279 277 276 275 274 273 273 272 271 268 265 264 264 264 265 266 266 266 266 265 265 264 263 263 262 262 261 262 262 262 261 261 260 259 257 257 256 256
309 309 309 309 309 308 308 308 308 308 308 309 309 308 308 307 307 308 308 309 309 309 309 309 309 309 308 307 307 306 306 305 305 304 304 304 304 304 303 300 297 293 290 287 285 283 282 280 278 276 275 273 272 272 272 273 272 269 266 264 264 264 265 265 265 265 265 265 265 265 264 263 261 260 260 259 259 259 259 259 259 259 259 258 258 258
308 308 308 308 307 307 307 307 308 309 310 310 309 308 306 305 305 306 306 306 307 307 308 309 309 309 309 308 308 307 307 306 306 305 305 305 305 304 302 299 295 290 287 284 282 281 279 277 276 275 274 273 273 273 273 273 271 269 266 264 264 263 263 264 264 264 265 265 265 264 263 262 260 257 256 255 255 256 256 256 257 258 259 259 259 260
307 307 307 306 306 306 307 308 310 311 312 310 307 304 302 302 303 303 304 305 306 307 308 309 310 310 309 309 308 307 306 306 305 305 305 305 304 303 301 297 293 289 285 283 281 279 278 277 276 276 277 277 278 278 277 275 272 269 267 265 264 263 263 263 264 264 265 265 264 263 262 261 258 255 254 254 255 255 256 255 256 257 258 259 260 261
306 306 306 306 307 308 310 311 312 311 309 306 303 301 301 301 301 302 303 304 306 307 309 310 310 310 309 308 307 306 305 304 304 304 304 304 303 302 300 297 294 291 289 286 285 283 283 282 282 282 282 282 282 281 279 276 273 271 268 267 265 265 264 264 265 265 265 264 263 261 259 258 256 254 253 254 255 256 257 256 256 257 257 258 258 259
306 307 308 309 311 311 311 310 309 307 304 301 300 300 300 301 302 303 304 305 307 308 310 310 310 309 308 307 305 304 304 304 305 305 305 305 304 302 301 299 297 296 295 294 293 292 291 290 289 288 286 285 283 281 278 276 274 271 270 268 267 266 265 265 265 265 265 263 261 259 257 255 253 252 253 254 254 256 257 257 257 257 256 256 256 256
308 311 312 313 312 310 308 306 304 303 302 300 299 300 300 302 303 305 306 307 308 309 310 309 309 308 307 306 305 305 305 305 305 305 305 305 304 304 303 302 301 301 300 299 297 296 294 292 291 289 287 285 282 280 278 276 274 272 270 269 268 267 266 266 265 265 264 263 260 257 254 252 251 251 251 252 252 253 255 256 256 256 256 255 254 254
313 314 312 310 307 305 304 303 303 302 302 301 300 301 302 303 305 306 308 308 309 309 309 308 308 307 306 306 307 307 307 307 306 305 305 306 306 307 306 306 305 304 303 301 299 296 294 292 290 288 286 284 282 280 278 276 274 272 270 269 268 267 266 266 265 264 264 262 260 257 254 252 251 251 251 251 251 252 254 255 255 255 254 254 253 252
313 310 306 303 302 303 303 303 303 302 302 302 302 303 304 306 307 308 308 308 308 309 309 308 307 307 307 308 308 309 309 308 308 307 308 309 309 309 308 308 308 307 305 302 299 297 294 292 290 288 286 284 282 280 278 276 274 272 271 269 268 267 266 265 265 264 263 262 261 259 256 255 254 253 252 252 253 253 254 254 254 254 254 253 253 252
306 303 302 302 303 303 303 303 303 303 303 304 304 305 306 308 308 308 307 307 307 308 308 308 308 308 309 310 310 311 311 311 310 311 311 310 309 309 309 309 308 307 305 303 300 297 296 294 291 289 287 285 282 280 278 277 275 273 271 269 268 267 266 265 264 264 264 264 263 262 259 257 256 255 254 254 254 254 254 254 254 254 254 254 253 253
302 302 303 304 304 303 303 303 303 304 304 306 306 307 308 308 308 308 307 307 307 308 309 310 310 310 311 312 312 313 313 313 313 312 311 309 308 308 308 308 308 306 305 303 300 298 297 295 292 290 287 285 283 281 279 277 275 273 271 269 268 266 265 264 264 265 266 265 264 261 259 257 256 255 254 253 253 253 253 254 254 254 254 254 253 253
303 304 304 304 303 302 303 303 304 305 306 307 308 308 308 308 308 308 308 308 309 310 311 311 311 311 312 313 313 314 314 313 312 311 309 308 307 308 308 307 306 305 304 302 300 298 296 295 293 290 288 285 283 281 279 277 275 273 271 269 268 266 265 264 263 263 263 261 259 258 257 256 255 254 253 252 252 252 253 253 254 254 254 253 253 253
304 304 303 302 302 303 304 305 306 306 308 308 309 308 308 308 308 309 310 310 311 312 313 314 313 312 311 312 312 312 312 311 310 309 308 307 307 308 308 307 306 305 303 302 300 298 296 294 292 290 288 285 283 281 278 276 274 272 270 269 269 268 266 264 261 258 257 255 255 254 253 253 252 252 251 251 252 252 253 253 254 254 254 253 253 253
303 302 301 302 303 305 306 307 308 308 309 309 309 309 309 309 310 311 312 312 313 313 313 313 311 311 311 311 312 311 311 310 309 308 308 307 307 308 309 308 307 305 304 302 300 299 297 295 292 290 288 285 282 279 276 273 270 267 266 266 265 263 260 257 255 253 252 252 251 251 251 251 251 251 251 252 252 253 253 254 254 254 254 253 253 252
302 302 303 303 305 306 307 308 309 309 310 310 310 310 310 310 311 312 312 312 313 313 312 311 310 310 310 311 312 312 312 311 310 309 308 308 308 309 310 310 308 306 304 302 301 299 298 296 293 291 288 285 282 278 274 269 265 261 259 258 256 254 253 252 252 251 251 251 252 252 252 252 252 252 252 253 253 254 254 254 254 254 254 253 252 251
302 303 304 305 306 307 308 309 310 311 311 311 311 311 311 311 312 312 312 312 312 312 311 310 310 310 310 310 311 313 313 312 311 310 310 309 309 310 311 311 310 307 305 303 302 301 300 297 295 292 290 286 282 278 273 268 263 260 257 255 254 253 252 251 251 251 251 252 252 253 253 253 253 253 253 254 255 255 255 254 254 254 254 253 252 250
302 304 305 306 307 308 309 310 312 312 313 313 312 312 312 312 312 312 312 312 312 311 311 311 311 311 311 311 312 314 315 314 313 312 311 310 310 311 313 313 311 308 306 305 305 305 303 300 298 295 293 290 286 281 276 271 266 261 258 255 254 253 253 253 253 253 253 252 252 252 252 252 252 253 254 256 258 258 255 254 254 254 253 252 251 249
303 304 306 308 308 309 310 312 314 314 314 314 313 313 313 313 313 313 313 313 313 313 312 312 312 312 312 313 314 316 317 316 315 313 312 311 311 312 314 314 313 310 309 308 308 308 306 304 302 299 298 295 292 288 283 278 272 267 262 259 256 255 254 254 254 254 253 252 252 251 251 251 251 251 253 255 257 257 256 255 254 253 252 251 249 247
304 306 308 310 310 311 312 314 315 315 316 315 315 315 315 315 315 315 315 315 314 314 314 313 313 313 314 314 316 318 319 318 316 314 313 312 312 314 316 316 314 312 311 311 311 311 309 307 306 304 303 300 298 294 289 285 279 274 270 266 262 259 257 256 255 254 253 252 252 251 251 251 251 251 252 254 255 256 255 254 253 252 251 249 248 247
305 307 310 312 313 314 315 315 316 317 317 317 317 317 316 316 316 315 315 315 315 315 314 314 314 315 316 316 317 319 319 319 317 315 314 313 313 315 317 317 315 314 313 314 315 315 313 311 310 309 307 305 301 297 293 287 283 278 274 271 268 265 262 260 258 256 254 253 252 252 252 252 253 253 253 254 255 255 255 254 253 251 249 248 247 246
308 310 312 314 315 316 317 318 318 319 319 319 319 318 317 317 316 316 316 316 316 316 316 315 315 315 316 317 318 319 320 320 319 318 317 316 316 317 319 319 318 317 316 317 317 317 315 314 314 313 312 309 305 300 295 289 284 280 276 273 270 267 265 262 260 257 255 253 252 252 253 253 253 254 254 255 255 256 255 254 252 250 248 247 246 245
311 313 315 316 318 319 319 320 320 321 321 320 319 318 317 317 316 316 316 317 317 316 315 314 314 315 316 317 318 320 322 322 322 321 320 318 317 317 319 321 319 318 317 318 319 318 318 317 318 317 316 313 309 304 298 293 287 282 277 273 270 267 264 261 259 256 254 253 252 252 252 252 253 254 254 255 255 256 256 255 254 251 249 246 245 243
314 316 318 319 320 321 321 321 321 321 321 320 319 318 317 316 316 316 316 316 316 315 315 314 314 315 317 318 320 322 324 325 326 325 322 319 317 317 320 321 320 318 318 319 320 320 319 320 321 321 319 316 313 308 303 297 292 286 280 275 270 266 263 260 257 255 253 251 251 250 250 251 252 253 254 255 256 257 257 257 256 253 250 247 244 242
318 320 321 322 322 322 322 322 322 321 320 319 317 316 315 315 315 315 316 316 316 316 315 315 315 317 318 320 321 323 326 328 329 328 323 319 316 317 320 321 321 319 318 319 321 321 320 321 322 323 322 320 318 314 309 304 298 291 285 278 273 268 264 260 257 254 252 251 250 250 250 251 252 253 254 255 257 258 259 259 258 255 251 247 244 240
322 323 324 324 324 324 323 322 321 320 318 317 316 315 314 314 314 315 316 316 317 316 316 316 316 317 319 320 322 324 327 330 331 329 324 319 317 317 320 321 320 319 319 319 320 321 321 322 324 325 326 325 324 322 318 314 307 299 291 283 276 270 265 261 257 254 252 251 251 251 252 253 254 255 256 258 260 261 262 262 260 257 252 248 244 239
325 325 326 326 326 324 322 321 319 318 317 316 316 315 314 314 314 314 315 316 317 317 317 317 317 318 319 320 322 325 328 331 332 329 323 319 316 317 320 320 319 319 319 319 321 322 323 325 326 327 328 329 328 327 325 320 313 305 295 285 276 269 264 260 256 254 252 252 252 253 254 255 257 259 261 263 265 266 266 266 263 260 255 250 244 239
327 328 328 327 326 323 321 319 318 318 317 317 316 315 315 315 314 315 316 316 317 317 317 317 317 318 319 320 321 324 328 333 333 328 322 317 316 317 319 318 319 319 320 320 320 322 324 328 329 329 328 329 329 328 326 321 314 305 295 284 275 268 263 260 257 255 255 255 256 258 260 262 264 266 268 270 271 272 272 270 267 263 258 251 244 237
330 330 329 328 325 323 321 319 319 319 319 319 318 318 317 317 317 317 317 317 317 317 317 316 317 317 318 318 318 321 325 331 332 327 321 317 316 317 318 317 318 320 321 320 319 319 322 327 331 332 330 329 329 329 326 321 314 305 296 287 278 272 268 265 264 263 263 265 266 268 269 270 272 273 275 276 277 277 276 273 269 265 259 251 242 235
331 330 329 327 325 323 321 321 321 322 322 322 322 322 321 320 320 319 319 318 318 317 316 316 316 317 317 317 316 318 323 328 330 326 321 317 316 317 318 317 318 319 320 319 317 317 318 323 330 334 333 332 332 331 328 323 317 310 302 295 288 282 278 276 274 274 274 274 274 275 276 277 278 280 281 282 282 281 279 274 269 263 256 248 239 232
330 329 327 325 324 323 324 324 325 326 327 327 327 327 325 324 323 322 321 320 319 318 317 316 316 317 317 317 317 319 322 326 327 324 320 317 316 316 317 317 317 318 320 319 318 317 317 321 327 333 335 335 335 334 332 328 321 315 308 300 295 290 287 284 282 281 281 281 281 281 283 284 286 287 287 287 285 283 279 273 267 259 251 243 235 228
329 328 326 325 325 326 327 329 330 331 332 332 332 331 330 328 327 326 324 323 322 320 319 318 317 317 317 317 318 320 323 325 325 323 319 316 314 314 316 317 318 318 319 319 319 320 320 324 327 331 333 335 337 338 337 333 325 315 307 300 296 293 292 290 289 288 289 290 291 292 293 294 294 294 293 291 288 285 279 271 262 253 244 236 229 224
328 328 327 328 329 331 333 334 335 337 337 337 336 334 333 331 330 329 328 327 326 324 323 321 320 319 318 318 318 320 322 324 323 321 318 314 313 313 314 316 318 319 319 319 321 322 323 326 329 330 332 334 338 341 341 334 323 312 305 301 298 297 299 300 302 304 306 307 307 307 306 304 303 302 300 297 293 287 278 267 255 245 236 229 223 220
329 330 331 332 334 335 337 339 340 340 340 339 338 337 335 334 333 333 333 332 331 330 328 326 325 323 321 320 319 319 321 322 322 320 317 314 312 312 313 315 318 319 319 320 322 323 324 327 330 332 333 335 338 341 338 327 316 309 307 306 306 308 312 316 321 324 327 327 325 320 315 311 308 307 303 299 294 288 276 260 244 233 226 221 217 215
331 333 335 337 338 339 340 341 342 342 341 340 339 337 336 335 336 336 336 337 336 335 334 332 330 328 326 324 322 321 321 321 320 318 316 314 312 312 313 315 318 320 319 320 322 324 326 328 331 333 335 338 339 338 333 326 321 319 318 317 318 323 329 332 334 336 337 337 334 327 319 313 311 309 305 299 295 289 276 256 237 224 217 212 210 208
334 337 340 341 342 342 341 342 342 341 340 339 338 337 336 336 336 338 339 340 340 340 339 337 336 335 333 330 327 324 322 320 319 318 316 315 313 313 314 316 319 321 321 322 323 326 328 329 330 333 336 340 343 342 338 335 334 334 333 331 333 337 341 342 341 340 340 337 332 325 320 318 318 316 310 303 297 291 281 262 240 225 215 209 204 200
338 341 343 344 344 343 342 341 341 340 339 338 336 335 335 335 336 338 340 342 343 343 342 341 341 340 338 335 331 327 324 321 319 318 317 316 315 315 315 317 319 322 324 325 326 328 328 329 329 331 334 338 344 348 348 346 347 348 347 344 343 343 344 345 344 342 339 334 328 322 320 319 319 315 304 290 280 274 268 262 250 234 221 211 203 197
341 344 345 345 344 342 341 340 339 338 337 336 335 334 334 334 336 338 341 343 344 344 344 343 343 343 342 339 335 331 326 323 321 319 318 317 317 317 318 319 322 324 326 328 330 330 329 328 329 331 335 340 347 354 358 360 1 2 359 356 352 349 348 348 348 347 343 335 327 319 313 308 304 298 280 225 213 219 226 231 236 236 229 216 205 197
343 345 345 344 343 341 339 338 337 336 335 335 334 333 333 334 336 338 341 343 345 345 345 345 345 345 344 342 338 333 329 325 323 321 321 321 321 321 322 323 325 327 328 330 332 332 331 329 330 335 342 350 358 5 10 13 15 13 9 7 4 3 1 1 1 2 359 346 321 299 286 276 269 264 265 292 71 129 178 198 213 226 233 223 207 197
344 345 344 343 341 339 338 337 336 335 335 334 334 334 334 335 336 337 340 342 344 345 345 345 345 346 346 345 342 337 333 329 327 326 326 326 326 327 327 327 328 329 330 331 333 334 333 332 335 342 353 4 13 20 24 27 25 22 19 19 21 23 25 28 36 50 65 86 113 153 203 228 238 247 262 280 310 7 150 186 205 220 232 233 221 202
344 343 342 340 339 338 337 336 336 336 336 336 336 336 336 336 336 337 339 341 343 344 345 345 346 347 347 347 346 344 340 337 335 333 333 333 333 333 332 331 331 331 332 332 334 336 339 340 346 356 8 19 27 32 34 36 35 32 30 33 39 46 51 55 61 66 69 73 80 90 104 134 189 228 257 288 304 298 248 224 223 229 236 240 236 220
342 341 340 338 337 337 337 336 337 337 339 340 340 340 339 338 337 337 338 340 342 344 345 346 347 348 349 350 350 350 349 346 344 342 341 341 339 337 336 335 334 334 335 335 337 342 349 358 8 18 29 36 40 42 44 45 44 43 43 43 45 46 47 50 52 53 52 53 56 60 66 73 87 139 231 278 311 322 299 272 254 246 244 242 236 224
340 339 338 337 336 337 337 338 339 341 343 344 344 343 342 340 339 339 339 340 342 344 346 347 349 350 351 352 353 354 354 353 351 350 349 347 345 342 339 338 337 338 340 342 346 353 6 21 34 43 49 50 49 49 50 51 50 49 47 45 43 40 39 41 42 42 40 39 39 41 43 44 47 52 62 86 211 282 310 319 313 292 266 246 230 216
338 338 337 337 337 338 340 341 343 345 347 348 348 347 345 343 341 340 340 341 343 345 347 350 352 353 354 355 355 356 357 358 357 356 354 352 350 347 344 342 342 344 348 354 3 16 30 44 54 59 60 59 57 56 55 53 51 48 45 43 41 38 37 37 37 37 34 31 30 29 29 30 29 30 36 58 98 153 218 311 342 334 308 258 221 204
338 337 337 338 339 341 343 344 346 348 349 351 351 350 348 346 344 343 343 343 345 347 349 352 355 356 357 357 357 358 359 360 0 360 358 357 355 353 350 349 351 355 3 14 28 43 55 63 68 69 68 66 63 60 57 54 49 44 41 40 38 36 34 34 34 34 33 29 25 23 23 20 17 18 26 44 73 118 159 164 53 2 336 285 213 196
338 338 338 339 341 343 346 348 349 351 352 353 353 353 352 350 348 346 346 346 347 349 352 355 358 360 360 360 360 360 0 1 1 1 0 0 0 360 359 359 2 10 23 38 52 62 69 74 76 75 73 70 65 60 56 52 48 43 40 38 36 33 30 29 29 29 27 23 20 17 14 10 7 8 15 29 52 96 140 155 141 48 360 315 206 191
337 338 339 341 343 346 348 350 352 353 354 355 355 356 355 354 351 350 348 348 349 351 354 358 0 2 3 3 3 2 2 3 3 3 3 4 5 7 9 12 18 28 43 57 67 73 77 79 78 77 75 71 65 60 55 51 46 43 40 38 36 32 29 26 24 23 20 17 15 13 10 7 6 6 9 18 39 79 124 145 149 139 116 223 196 187
338 340 341 343 346 348 350 352 354 355 356 357 358 358 358 357 355 354 352 351 351 353 356 360 2 4 5 5 5 4 4 5 5 6 7 8 10 14 19 25 34 45 57 68 75 79 81 81 79 76 73 70 65 60 54 49 45 43 41 40 37 33 28 23 20 18 16 14 12 11 10 8 8 10 12 19 41 78 110 128 138 142 149 179 185 181
340 342 344 346 348 350 352 354 356 358 359 360 0 0 0 360 359 358 357 355 355 355 358 1 4 6 6 6 6 6 6 6 8 9 11 13 16 20 27 36 46 57 67 74 79 82 83 81 78 73 70 67 64 60 55 49 44 41 40 40 39 35 29 23 19 16 14 13 12 11 11 11 12 15 20 31 55 85 107 116 121 125 130 139 159 171
Height
2874 2871 2869 2867 2865 2862 2858 2857 2856 2853 2850 2848 2846 2844 2843 2840 2838 2837 2836 2834 2832 2830 2828 2826 2824 2822 2820 2818 2817 2816 2815 2814 2813 2812 2810 2809 2808 2807 2805 2804 2803 2802 2800 2799 2799 2798 2798 2797 2796 2796 2796 2795 2795 2794 2794 2794 2793 2793 2792 2791 2791 2791 2792 2790 2789 2788 2787 2787 2787 2787 2787 2788 2788 2788 2789 2789 2790 2792 2793 2793 2794 2793 2793 2794 2794 2794
2870 2867 2864 2863 2861 2858 2854 2853 2852 2850 2847 2843 2842 2840 2838 2836 2834 2833 2831 2830 2828 2826 2823 2821 2819 2817 2815 2814 2813 2812 2810 2809 2808 2807 2805 2804 2803 2802 2800 2799 2798 2797 2796 2795 2794 2794 2793 2793 2792 2792 2791 2791 2790 2790 2789 2789 2788 2788 2788 2787 2786 2786 2785 2784 2783 2783 2783 2782 2782 2782 2783 2783 2783 2784 2784 2785 2785 2786 2787 2788 2788 2788 2788 2789 2789 2789
2866 2863 2860 2858 2856 2854 2851 2848 2847 2846 2843 2840 2838 2836 2834 2832 2830 2828 2827 2825 2823 2821 2820 2818 2816 2814 2812 2810 2808 2807 2806 2804 2803 2802 2800 2799 2798 2797 2796 2794 2793 2793 2792 2791 2790 2790 2789 2789 2788 2788 2787 2787 2787 2786 2786 2785 2785 2784 2784 2783 2782 2781 2780 2780 2779 2778 2778 2778 2778 2778 2778 2779 2779 2780 2780 2781 2781 2782 2782 2783 2783 2783 2783 2784 2784 2785
2861 2858 2855 2854 2852 2850 2848 2845 2843 2841 2839 2837 2834 2832 2830 2828 2826 2824 2823 2821 2819 2817 2816 2814 2813 2811 2808 2806 2804 2803 2801 2800 2798 2797 2796 2794 2793 2792 2791 2790 2789 2788 2788 2787 2787 2786 2786 2785 2784 2784 2784 2784 2784 2783 2782 2781 2781 2780 2780 2779 2778 2777 2776 2776 2775 2774 2773 2773 2773 2773 2774 2775 2775 2776 2777 2777 2778 2778 2778 2778 2779 2779 2779 2780 2780 2781
2857 2855 2852 2850 2848 2845 2844 2842 2840 2838 2835 2833 2830 2828 2826 2823 2822 2820 2818 2817 2815 2813 2812 2811 2809 2807 2804 2802 2800 2798 2797 2796 2794 2793 2792 2790 2789 2788 2787 2786 2785 2784 2784 2783 2783 2783 2782 2782 2782 2782 2781 2781 2781 2779 2778 2777 2776 2775 2774 2773 2773 2773 2772 2771 2770 2769 2769 2769 2769 2770 2770 2771 2772 2772 2773 2774 2774 2774 2774 2775 2775 2775 2775 2775 2776 2778
2853 2852 2850 2847 2845 2843 2840 2838 2837 2834 2832 2829 2827 2825 2823 2821 2818 2817 2815 2813 2811 2810 2808 2806 2804 2803 2800 2798 2796 2794 2793 2792 2790 2789 2788 2787 2785 2784 2783 2782 2781 2781 2780 2780 2779 2779 2779 2778 2778 2777 2777 2776 2775 2774 2773 2772 2771 2770 2769 2768 2768 2768 2767 2766 2765 2765 2765 2765 2766 2766 2767 2768 2768 2768 2769 2770 2770 2770 2770 2770 2770 2770 2770 2771 2773 2774
2849 2848 2848 2845 2842 2839 2838 2835 2833 2831 2829 2826 2824 2822 2820 2818 2816 2814 2812 2810 2808 2806 2803 2802 2800 2798 2797 2794 2793 2791 2790 2788 2787 2786 2785 2783 2782 2781 2780 2779 2778 2778 2777 2776 2776 2775 2775 2774 2773 2772 2771 2770 2769 2768 2768 2767 2766 2765 2765 2764 2763 2763 2762 2762 2761 2761 2762 2762 2762 2763 2763 2764 2764 2764 2765 2766 2766 2766 2766 2766 2766 2767 2767 2768 2768 2770
2846 2844 2844 2842 2839 2835 2833 2831 2830 2829 2827 2825 2822 2819 2816 2814 2813 2811 2809 2807 2805 2803 2800 2797 2795 2794 2793 2791 2789 2788 2786 2785 2783 2782 2781 2780 2778 2777 2776 2775 2775 2774 2773 2773 2772 2772 2771 2770 2769 2768 2767 2766 2765 2764 2763 2762 2762 2761 2760 2759 2759 2758 2758 2758 2758 2758 2758 2758 2758 2759 2760 2761 2761 2761 2762 2762 2762 2762 2762 2762 2762 2763 2763 2764 2765 2766
2844 2841 2839 2837 2835 2833 2830 2828 2827 2827 2826 2823 2820 2817 2814 2811 2808 2807 2805 2803 2801 2799 2797 2794 2792 2790 2788 2788 2786 2784 2783 2781 2780 2778 2777 2776 2775 2773 2773 2772 2771 2771 2770 2769 2768 2768 2767 2766 2765 2764 2763 2762 2761 2760 2759 2758 2757 2757 2756 2755 2755 2754 2754 2754 2754 2754 2754 2754 2754 2755 2756 2757 2757 2758 2758 2758 2759 2759 2758 2758 2758 2759 2760 2760 2761 2763
2841 2838 2835 2833 2832 2831 2829 2827 2824 2823 2823 2821 2818 2815 2813 2808 2805 2802 2799 2797 2796 2795 2794 2791 2788 2786 2784 2783 2782 2781 2779 2778 2776 2775 2774 2773 2771 2770 2769 2768 2768 2767 2766 2766 2765 2764 2763 2762 2761 2759 2758 2758 2757 2756 2755 2754 2753 2753 2752 2751 2751 2751 2750 2750 2750 2750 2750 2751 2751 2751 2752 2753 2753 2754 2754 2755 2755 2755 2755 2755 2755 2755 2756 2757 2757 2758
2837 2835 2834 2833 2830 2828 2827 2825 2823 2821 2820 2818 2814 2812 2810 2807 2803 2799 2795 2792 2790 2790 2789 2788 2785 2783 2780 2778 2778 2777 2776 2774 2773 2772 2771 2769 2768 2766 2765 2765 2764 2763 2762 2762 2761 2760 2759 2758 2757 2756 2755 2753 2753 2752 2751 2750 2750 2749 2748 2748 2747 2747 2747 2747 2747 2747 2747 2747 2747 2748 2748 2749 2750 2750 2750 2750 2750 2750 2751 2751 2751 2751 2752 2752 2753 2754
2836 2834 2833 2830 2828 2826 2824 2822 2820 2818 2816 2813 2810 2807 2805 2803 2802 2798 2793 2789 2787 2785 2784 2783 2781 2780 2778 2776 2774 2773 2772 2771 2769 2767 2766 2765 2764 2763 2762 2761 2760 2759 2758 2758 2757 2756 2755 2754 2753 2752 2751 2750 2749 2748 2748 2747 2746 2745 2745 2744 2744 2744 2743 2743 2743 2743 2743 2744 2744 2744 2745 2746 2746 2746 2746 2746 2746 2746 2746 2746 2746 2747 2747 2748 2749 2750
2835 2832 2829 2827 2825 2823 2821 2818 2816 2813 2812 2810 2807 2803 2800 2798 2797 2795 2791 2787 2784 2783 2781 2778 2777 2776 2775 2773 2772 2770 2768 2767 2765 2763 2763 2761 2760 2759 2758 2757 2757 2756 2755 2753 2753 2752 2751 2750 2749 2748 2747 2746 2745 2744 2744 2743 2743 2742 2742 2741 2741 2741 2740 2740 2740 2740 2741 2741 2742 2742 2743 2743 2743 2742 2742 2742 2743 2743 2742 2742 2742 2743 2743 2744 2745 2746
2831 2828 2826 2824 2822 2819 2818 2815 2813 2810 2808 2806 2804 2801 2798 2795 2793 2791 2788 2784 2782 2780 2778 2776 2773 2772 2771 2770 2769 2767 2765 2763 2762 2760 2759 2758 2757 2756 2755 2754 2753 2752 2751 2750 2748 2748 2747 2746 2745 2744 2743 2743 2742 2741 2740 2739 2739 2738 2738 2738 2738 2738 2737 2737 2737 2738 2738 2739 2739 2738 2738 2739 2739 2739 2738 2738 2738 2738 2738 2738 2738 2739 2740 2741 2742 2743
2828 2826 2823 2820 2818 2816 2814 2812 2810 2807 2804 2803 2801 2798 2795 2792 2790 2788 2785 2781 2779 2777 2775 2773 2770 2768 2768 2767 2766 2764 2763 2761 2759 2757 2756 2754 2754 2754 2753 2751 2749 2748 2748 2746 2744 2744 2743 2742 2741 2740 2739 2738 2738 2737 2736 2736 2735 2735 2735 2735 2735 2734 2734 2734 2735 2735 2736 2736 2735 2735 2735 2735 2735 2734 2734 2734 2733 2733 2733 2734 2734 2735 2736 2737 2738 2739
2825 2823 2821 2818 2815 2813 2811 2810 2807 2804 2801 2799 2797 2795 2792 2789 2787 2784 2782 2779 2777 2775 2773 2770 2767 2765 2764 2764 2765 2763 2761 2759 2756 2754 2752 2750 2750 2750 2750 2747 2745 2744 2743 2742 2740 2739 2739 2738 2737 2736 2735 2734 2734 2733 2733 2732 2732 2732 2732 2732 2732 2732 2732 2732 2732 2732 2731 2731 2731 2731 2730 2730 2730 2729 2729 2729 2729 2729 2729 2730 2730 2731 2732 2733 2734 2735
2823 2821 2818 2815 2812 2809 2808 2806 2804 2802 2799 2796 2794 2792 2789 2787 2784 2782 2780 2777 2775 2773 2770 2768 2766 2763 2760 2760 2761 2762 2760 2757 2753 2751 2749 2746 2746 2746 2746 2744 2741 2739 2738 2738 2736 2735 2734 2733 2733 2732 2731 2731 2730 2730 2729 2728 2728 2728 2729 2730 2730 2729 2728 2727 2726 2726 2726 2726 2726 2726 2725 2725 2725 2725 2725 2725 2725 2725 2726 2726 2726 2727 2728 2729 2730 2731
2820 2818 2815 2812 2809 2807 2805 2803 2801 2799 2796 2793 2791 2788 2787 2785 2783 2781 2778 2776 2773 2771 2768 2766 2764 2762 2759 2757 2757 2758 2757 2754 2750 2747 2745 2743 2741 2741 2742 2740 2738 2736 2734 2733 2732 2731 2730 2729 2729 2728 2727 2727 2726 2726 2725 2725 2724 2724 2724 2724 2723 2722 2722 2722 2722 2722 2722 2722 2722 2722 2721 2721 2721 2721 2721 2721 2721 2721 2722 2722 2722 2723 2723 2724 2725 2727
2816 2814 2812 2809 2806 2804 2802 2800 2798 2796 2793 2791 2788 2786 2784 2782 2780 2778 2776 2773 2771 2769 2767 2764 2762 2759 2758 2755 2753 2754 2753 2751 2748 2744 2742 2739 2738 2737 2738 2736 2734 2732 2730 2729 2728 2728 2727 2726 2725 2724 2724 2723 2723 2722 2722 2722 2722 2721 2720 2719 2719 2718 2718 2718 2718 2718 2718 2718 2718 2718 2718 2718 2718 2718 2718 2718 2718 2718 2717 2717 2718 2718 2719 2720 2721 2722
2813 2811 2810 2807 2804 2801 2799 2798 2796 2794 2792 2789 2787 2784 2781 2779 2777 2776 2773 2771 2769 2767 2764 2762 2759 2757 2755 2753 2751 2751 2750 2748 2745 2742 2739 2736 2734 2734 2734 2733 2730 2728 2727 2726 2725 2724 2723 2722 2721 2720 2720 2719 2719 2719 2718 2718 2717 2717 2716 2716 2715 2715 2715 2715 2715 2715 2715 2715 2714 2714 2714 2714 2714 2714 2714 2715 2715 2714 2713 2713 2713 2714 2714 2716 2717 2718
2810 2808 2807 2805 2803 2799 2796 2795 2793 2792 2790 2787 2784 2781 2779 2776 2774 2772 2770 2768 2766 2764 2762 2759 2757 2755 2753 2751 2749 2748 2748 2746 2743 2739 2736 2733 2732 2732 2732 2730 2728 2725 2723 2723 2722 2722 2720 2719 2718 2717 2717 2716 2716 2715 2714 2714 2713 2713 2713 2712 2712 2712 2712 2711 2711 2711 2711 2711 2710 2710 2710 2710 2710 2710 2711 2711 2710 2709 2708 2708 2709 2709 2710 2711 2712 2713
2808 2805 2804 2803 2801 2798 2795 2793 2791 2790 2788 2785 2782 2779 2776 2774 2771 2769 2767 2766 2763 2761 2759 2757 2755 2753 2751 2749 2747 2746 2746 2744 2742 2738 2734 2731 2729 2729 2729 2728 2725 2723 2721 2720 2719 2718 2718 2716 2715 2714 2714 2713 2713 2712 2711 2710 2709 2709 2708 2708 2708 2708 2708 2707 2707 2707 2707 2707 2706 2706 2706 2706 2706 2706 2706 2706 2705 2704 2704 2704 2704 2705 2706 2706 2707 2708
2806 2803 2802 2800 2799 2797 2794 2791 2789 2787 2785 2783 2780 2777 2775 2772 2770 2767 2765 2763 2761 2759 2757 2754 2753 2751 2749 2748 2746 2745 2744 2743 2740 2737 2733 2729 2727 2726 2727 2725 2723 2721 2719 2718 2717 2716 2714 2713 2713 2712 2711 2711 2710 2709 2708 2707 2706 2705 2705 2704 2704 2703 2703 2703 2703 2703 2703 2703 2702 2702 2702 2702 2702 2702 2701 2701 2700 2699 2699 2699 2700 2700 2701 2702 2703 2704
2804 2802 2800 2799 2797 2795 2792 2789 2787 2785 2783 2780 2778 2776 2773 2771 2768 2766 2763 2762 2759 2757 2754 2752 2750 2748 2747 2746 2745 2743 2743 2741 2739 2736 2732 2728 2725 2724 2724 2723 2721 2718 2717 2716 2715 2713 2712 2711 2710 2709 2709 2708 2707 2706 2705 2704 2703 2702 2702 2701 2700 2700 2699 2699 2699 2698 2698 2698 2698 2698 2698 2698 2698 2697 2697 2696 2695 2694 2694 2694 2694 2695 2696 2697 2698 2700
2803 2801 2799 2797 2795 2793 2790 2788 2785 2783 2781 2778 2776 2774 2771 2769 2767 2764 2762 2760 2758 2755 2753 2751 2748 2747 2745 2744 2743 2742 2741 2740 2738 2734 2731 2727 2723 2722 2722 2721 2719 2716 2714 2713 2713 2711 2709 2708 2708 2707 2706 2705 2705 2704 2703 2702 2701 2700 2699 2698 2697 2697 2696 2695 2695 2694 2694 2694 2694 2694 2693 2693 2693 2693 2692 2691 2690 2689 2688 2688 2689 2690 2691 2693 2694 2696
2802 2800 2798 2795 2793 2791 2788 2786 2784 2782 2780 2778 2775 2773 2770 2767 2765 2763 2761 2759 2757 2755 2752 2750 2747 2745 2744 2742 2741 2739 2738 2738 2736 2733 2730 2726 2722 2720 2720 2719 2718 2714 2712 2710 2710 2709 2707 2705 2704 2704 2703 2703 2702 2702 2701 2700 2698 2698 2697 2696 2695 2694 2693 2692 2692 2691 2691 2690 2690 2689 2689 2688 2688 2687 2686 2685 2685 2684 2684 2684 2685 2686 2687 2688 2690 2691
2800 2798 2795 2793 2791 2789 2787 2785 2783 2781 2779 2777 2775 2772 2769 2766 2764 2761 2760 2758 2756 2754 2751 2748 2745 2743 2742 2740 2739 2737 2736 2735 2734 2732 2729 2725 2721 2718 2717 2717 2715 2713 2709 2708 2707 2706 2705 2703 2702 2701 2701 2700 2699 2699 2698 2697 2696 2695 2694 2693 2692 2691 2690 2689 2689 2688 2687 2687 2686 2685 2684 2683 2683 2682 2681 2681 2680 2680 2680 2681 2681 2682 2683 2684 2685 2687
2797 2795 2793 2791 2789 2787 2785 2783 2782 2780 2778 2776 2774 2772 2769 2766 2763 2761 2759 2757 2755 2753 2750 2747 2744 2742 2739 2738 2737 2735 2734 2733 2732 2730 2727 2724 2720 2717 2716 2715 2713 2711 2708 2705 2703 2703 2703 2701 2700 2699 2698 2697 2696 2695 2695 2694 2693 2692 2691 2690 2689 2688 2688 2686 2685 2684 2683 2683 2682 2680 2679 2678 2678 2678 2677 2677 2677 2677 2677 2678 2678 2678 2679 2680 2681 2683
2795 2793 2791 2789 2788 2786 2784 2782 2780 2779 2777 2775 2773 2771 2768 2766 2763 2761 2758 2756 2753 2751 2748 2746 2743 2741 2738 2736 2734 2733 2733 2732 2731 2728 2725 2722 2718 2716 2715 2713 2712 2710 2707 2703 2701 2699 2699 2698 2698 2696 2695 2694 2693 2692 2692 2691 2690 2689 2688 2687 2686 2685 2684 2683 2682 2681 2679 2678 2677 2676 2676 2675 2675 2675 2674 2674 2674 2674 2674 2674 2675 2675 2675 2676 2678 2680
2793 2791 2789 2788 2786 2784 2783 2781 2779 2778 2776 2774 2772 2770 2768 2765 2762 2760 2757 2754 2753 2750 2747 2744 2742 2740 2737 2734 2732 2730 2730 2730 2730 2728 2724 2721 2717 2715 2713 2712 2710 2709 2707 2703 2699 2696 2694 2695 2696 2695 2693 2692 2691 2690 2689 2688 2688 2686 2685 2683 2682 2681 2680 2679 2678 2677 2676 2675 2674 2674 2674 2673 2673 2673 2672 2672 2671 2671 2671 2671 2672 2672 2672 2673 2675 2677
2790 2788 2787 2785 2784 2783 2781 2779 2778 2776 2774 2772 2770 2768 2766 2763 2761 2758 2756 2753 2751 2749 2746 2743 2741 2738 2736 2734 2731 2728 2727 2728 2728 2726 2723 2720 2716 2713 2712 2710 2708 2707 2706 2704 2701 2696 2691 2691 2692 2693 2692 2690 2689 2688 2688 2686 2685 2683 2681 2680 2679 2678 2678 2677 2676 2675 2674 2674 2673 2673 2672 2672 2671 2670 2669 2668 2668 2668 2668 2668 2669 2669 2669 2670 2672 2674
2788 2787 2785 2784 2782 2781 2779 2778 2776 2774 2772 2770 2768 2766 2764 2762 2759 2757 2754 2752 2750 2747 2745 2742 2739 2737 2735 2733 2731 2728 2726 2726 2726 2724 2722 2719 2715 2712 2711 2709 2707 2705 2705 2704 2703 2699 2693 2689 2689 2690 2690 2689 2688 2686 2685 2684 2682 2680 2679 2678 2677 2676 2676 2676 2675 2674 2673 2672 2671 2670 2669 2668 2668 2667 2666 2666 2666 2665 2666 2666 2667 2667 2668 2668 2670 2672
2787 2785 2784 2782 2781 2779 2778 2776 2774 2772 2770 2768 2766 2764 2762 2760 2758 2755 2753 2751 2748 2746 2743 2741 2738 2735 2733 2731 2729 2727 2725 2724 2724 2723 2721 2718 2714 2711 2709 2708 2706 2704 2703 2702 2701 2699 2696 2691 2688 2687 2687 2687 2686 2685 2683 2682 2680 2679 2678 2677 2676 2675 2674 2674 2673 2671 2670 2669 2668 2668 2667 2666 2666 2665 2664 2664 2664 2664 2664 2664 2665 2665 2666 2667 2668 2671
2785 2784 2783 2781 2779 2778 2776 2774 2772 2770 2768 2766 2764 2762 2760 2758 2756 2754 2752 2749 2747 2745 2743 2740 2737 2734 2732 2729 2727 2725 2724 2723 2723 2721 2719 2717 2714 2711 2709 2707 2705 2703 2701 2700 2698 2697 2695 2692 2689 2687 2685 2685 2684 2684 2682 2681 2679 2678 2678 2676 2675 2673 2672 2671 2670 2669 2668 2667 2667 2666 2666 2665 2664 2664 2663 2663 2663 2663 2663 2663 2663 2664 2665 2666 2668 2670
2784 2783 2781 2780 2778 2776 2774 2772 2770 2768 2766 2764 2762 2760 2758 2756 2754 2752 2750 2748 2746 2744 2742 2739 2737 2734 2732 2729 2726 2723 2722 2722 2721 2720 2718 2717 2713 2711 2708 2707 2705 2703 2701 2698 2697 2695 2693 2691 2689 2688 2685 2683 2683 2683 2682 2680 2679 2678 2676 2675 2673 2672 2671 2670 2669 2668 2667 2667 2666 2665 2665 2664 2663 2663 2663 2662 2662 2662 2662 2662 2663 2663 2664 2666 2667 2669
2783 2782 2780 2778 2776 2774 2772 2770 2768 2766 2764 2763 2761 2759 2757 2755 2753 2751 2749 2747 2745 2743 2740 2738 2736 2734 2732 2729 2726 2723 2721 2720 2720 2719 2717 2716 2713 2711 2708 2706 2705 2703 2701 2698 2696 2694 2692 2690 2688 2687 2685 2683 2682 2681 2681 2680 2678 2677 2675 2674 2673 2672 2671 2670 2669 2668 2667 2666 2666 2665 2664 2664 2663 2663 2663 2662 2662 2662 2662 2662 2662 2663 2664 2665 2667 2668
2782 2780 2779 2777 2774 2773 2771 2769 2767 2765 2763 2761 2759 2758 2756 2754 2752 2750 2748 2746 2743 2741 2739 2737 2735 2733 2731 2729 2727 2724 2721 2720 2718 2717 2716 2714 2713 2710 2708 2706 2704 2703 2701 2698 2696 2693 2692 2689 2687 2686 2685 2683 2682 2680 2679 2678 2678 2677 2675 2674 2673 2672 2671 2670 2669 2668 2667 2666 2666 2665 2664 2664 2663 2663 2663 2662 2662 2662 2662 2662 2662 2663 2664 2665 2666 2668
2781 2779 2777 2775 2773 2771 2769 2767 2765 2764 2762 2760 2758 2756 2754 2753 2751 2748 2747 2744 2743 2740 2738 2736 2734 2732 2730 2728 2726 2724 2722 2719 2718 2716 2715 2713 2712 2710 2708 2705 2703 2702 2701 2698 2696 2693 2691 2689 2687 2685 2683 2683 2682 2680 2679 2678 2677 2677 2676 2675 2673 2672 2671 2670 2669 2668 2667 2666 2666 2665 2664 2664 2663 2663 2663 2663 2662 2662 2662 2662 2662 2663 2663 2664 2666 2667
2779 2778 2776 2774 2772 2770 2768 2766 2764 2763 2761 2759 2757 2755 2753 2751 2749 2748 2745 2743 2741 2739 2737 2735 2733 2731 2729 2727 2725 2723 2721 2719 2717 2715 2714 2713 2711 2709 2707 2705 2703 2701 2699 2698 2696 2693 2691 2689 2687 2685 2683 2682 2681 2681 2680 2678 2678 2677 2676 2675 2674 2673 2671 2670 2669 2668 2667 2666 2666 2665 2664 2664 2663 2663 2663 2663 2663 2663 2663 2663 2663 2663 2664 2664 2665 2666
2778 2776 2774 2773 2771 2769 2767 2765 2763 2762 2760 2758 2756 2754 2752 2749 2748 2746 2744 2742 2740 2738 2736 2734 2732 2730 2728 2726 2724 2722 2720 2718 2716 2715 2713 2712 2710 2709 2707 2704 2702 2700 2698 2696 2695 2693 2691 2689 2687 2685 2684 2683 2682 2681 2680 2679 2678 2677 2676 2675 2673 2673 2671 2670 2669 2668 2667 2666 2665 2665 2664 2664 2664 2663 2663 2663 2663 2663 2663 2663 2663 2663 2664 2664 2665 2666
2777 2775 2773 2772 2770 2768 2767 2765 2763 2761 2759 2757 2754 2753 2750 2748 2746 2744 2743 2741 2739 2737 2735 2733 2731 2729 2728 2726 2724 2722 2720 2718 2716 2714 2713 2711 2709 2708 2706 2704 2701 2699 2697 2695 2693 2692 2691 2689 2687 2686 2685 2684 2683 2682 2681 2679 2678 2678 2676 2675 2674 2673 2671 2670 2669 2668 2668 2667 2666 2665 2664 2664 2664 2664 2663 2663 2663 2663 2663 2663 2663 2664 2664 2664 2665 2666
2776 2774 2772 2771 2769 2767 2765 2764 2762 2760 2758 2756 2753 2751 2749 2747 2745 2743 2741 2740 2738 2736 2734 2732 2730 2728 2727 2725 2723 2722 2720 2718 2716 2714 2713 2711 2709 2707 2705 2703 2700 2698 2696 2694 2693 2692 2690 2689 2688 2687 2686 2685 2684 2682 2681 2680 2679 2678 2677 2676 2674 2673 2672 2671 2670 2669 2668 2667 2666 2665 2665 2664 2664 2664 2664 2664 2663 2664 2664 2664 2664 2664 2665 2665 2666 2666
2775 2773 2771 2770 2768 2766 2764 2763 2761 2758 2757 2754 2753 2750 2748 2746 2744 2742 2740 2739 2737 2735 2733 2732 2730 2728 2726 2724 2723 2721 2719 2718 2716 2714 2712 2710 2708 2706 2704 2702 2700 2698 2696 2694 2692 2691 2690 2689 2688 2688 2687 2686 2684 2683 2682 2681 2680 2679 2678 2677 2675 2674 2673 2672 2670 2669 2668 2667 2666 2666 2665 2665 2665 2665 2665 2664 2664 2664 2664 2665 2665 2665 2666 2666 2667 2667
2774 2772 2770 2769 2767 2765 2763 2761 2759 2757 2755 2753 2751 2749 2748 2746 2744 2742 2740 2738 2737 2735 2733 2731 2729 2727 2725 2723 2722 2721 2719 2717 2716 2714 2712 2710 2708 2705 2703 2701 2699 2697 2696 2694 2693 2691 2691 2690 2689 2688 2687 2686 2685 2684 2683 2682 2681 2680 2679 2678 2676 2675 2673 2672 2670 2669 2668 2667 2667 2666 2666 2666 2666 2666 2665 2665 2665 2665 2665 2665 2665 2665 2666 2666 2667 2668
2773 2771 2769 2768 2766 2764 2762 2760 2758 2756 2754 2753 2750 2748 2747 2745 2743 2741 2739 2738 2736 2735 2733 2731 2729 2727 2725 2723 2721 2720 2718 2717 2715 2713 2711 2709 2707 2705 2702 2700 2698 2697 2695 2694 2693 2692 2691 2690 2690 2689 2688 2687 2686 2685 2684 2683 2682 2681 2679 2678 2677 2675 2673 2672 2670 2669 2668 2668 2668 2667 2667 2666 2666 2666 2666 2666 2665 2665 2665 2665 2665 2666 2666 2666 2667 2668
2772 2770 2768 2767 2765 2763 2761 2759 2757 2755 2753 2752 2750 2748 2746 2744 2743 2741 2739 2738 2736 2734 2733 2731 2729 2727 2724 2723 2721 2719 2718 2716 2714 2713 2710 2708 2707 2704 2702 2700 2698 2697 2695 2694 2693 2693 2692 2691 2690 2689 2689 2688 2688 2687 2686 2684 2683 2682 2680 2678 2677 2675 2674 2673 2672 2671 2670 2669 2668 2668 2667 2667 2667 2666 2666 2666 2666 2666 2666 2666 2666 2666 2666 2667 2667 2668
2771 2769 2768 2766 2764 2762 2760 2758 2757 2755 2753 2751 2749 2748 2746 2744 2742 2740 2739 2737 2735 2734 2732 2731 2729 2727 2724 2722 2720 2718 2717 2715 2713 2712 2710 2708 2706 2704 2702 2700 2698 2697 2696 2695 2694 2693 2693 2692 2691 2691 2690 2689 2689 2688 2687 2685 2683 2682 2680 2679 2678 2676 2675 2674 2673 2673 2672 2671 2670 2669 2669 2668 2668 2667 2666 2666 2666 2666 2666 2667 2667 2667 2667 2667 2667 2668
2770 2768 2767 2765 2763 2761 2759 2758 2756 2754 2752 2751 2749 2748 2746 2744 2742 2740 2738 2737 2735 2733 2732 2730 2728 2726 2724 2722 2720 2718 2717 2715 2713 2711 2709 2708 2706 2704 2702 2700 2698 2697 2696 2695 2695 2694 2693 2693 2692 2692 2691 2691 2690 2688 2687 2686 2684 2683 2681 2680 2678 2678 2677 2676 2675 2674 2673 2673 2672 2671 2670 2669 2668 2668 2667 2667 2667 2667 2667 2667 2667 2667 2667 2668 2668 2668
2770 2768 2766 2764 2762 2760 2759 2757 2755 2754 2752 2750 2748 2747 2745 2744 2742 2740 2738 2736 2735 2733 2732 2730 2728 2726 2724 2723 2721 2719 2717 2715 2713 2711 2709 2708 2706 2704 2702 2700 2699 2698 2697 2696 2696 2695 2695 2694 2694 2693 2693 2692 2691 2689 2688 2687 2685 2684 2683 2681 2680 2679 2678 2678 2677 2676 2675 2674 2673 2672 2671 2670 2670 2669 2668 2668 2667 2667 2667 2668 2668 2668 2668 2668 2668 2669
2769 2767 2765 2763 2762 2760 2758 2757 2755 2753 2752 2750 2748 2747 2745 2743 2742 2740 2738 2736 2735 2733 2732 2730 2728 2726 2724 2723 2721 2719 2717 2716 2714 2712 2710 2708 2706 2704 2703 2701 2700 2699 2698 2698 2697 2697 2696 2696 2695 2695 2694 2693 2692 2690 2689 2688 2687 2686 2684 2683 2682 2682 2681 2680 2679 2678 2677 2676 2675 2674 2673 2672 2671 2670 2669 2669 2668 2668 2668 2668 2668 2669 2669 2669 2669 2669
2768 2767 2765 2763 2762 2760 2758 2757 2755 2753 2751 2750 2748 2747 2745 2743 2741 2740 2738 2736 2735 2733 2732 2730 2728 2726 2724 2723 2721 2719 2718 2716 2714 2713 2711 2709 2707 2705 2704 2703 2701 2700 2699 2699 2698 2698 2698 2697 2697 2696 2695 2694 2693 2692 2691 2690 2689 2688 2687 2685 2684 2683 2683 2682 2681 2680 2679 2678 2677 2676 2675 2674 2673 2672 2671 2670 2669 2669 2669 2669 2669 2670 2670 2670 2670 2670